Printer-friendly version

IAU Minor Planet Center

Minor Planet Center

MPEC 2002-X18 : COMET C/2002 T7 (LINEAR)

The following Minor Planet Electronic Circular may be linked-to from your own Web pages, but must not otherwise be redistributed electronically.


Read MPEC 2002-X17 Read MPEC 2002-X19


M.P.E.C. 2002-X18                                Issued 2002 Dec. 3, 21:10 UT

     The Minor Planet Electronic Circulars contain information on unusual
         minor planets and routine data on comets.  They are published
   on behalf of Commission 20 of the International Astronomical Union by the
          Minor Planet Center, Smithsonian Astrophysical Observatory,
                          Cambridge, MA 02138, U.S.A.

             Prepared using the Tamkin Foundation Computer Network

                              MPC@CFA.HARVARD.EDU
          URL http://cfa-www.harvard.edu/iau/mpc.html  ISSN 1523-6714

                           COMET C/2002 T7 (LINEAR)

Observations:
    CK02T070  C2002 11 12.97407 05 48 48.63 +28 23 48.8                      048
    CK02T070  C2002 11 12.99028 05 48 47.92 +28 23 50.9                      048
    CK02T070  C2002 11 12.99609 05 48 47.72 +28 23 50.4                      048
    CK02T070  C2002 11 23.59228 05 40 31.85 +28 32 41.1                      340
    CK02T070  C2002 11 23.59508 05 40 31.83 +28 32 41.2                      340
    CK02T070  C2002 11 23.60135 05 40 31.42 +28 32 40.7                      340
    CK02T070  C2002 11 23.60707 05 40 31.20 +28 32 41.2          17.9 N      340
    CK02T070  C2002 11 23.61409 05 40 30.75 +28 32 40.2          17.3 T      340
    CK02T070  C2002 11 26.68946 05 37 52.29 +28 34 34.9          16.8 T      349
    CK02T070  C2002 11 26.69249 05 37 52.14 +28 34 35.0                      349
    CK02T070  C2002 11 26.69506 05 37 52.00 +28 34 35.1                      349
    CK02T070  C2002 11 26.69778 05 37 51.83 +28 34 35.1                      349
    CK02T070  C2002 11 26.70078 05 37 51.69 +28 34 35.3                      349
    CK02T070  C2002 11 26.70333 05 37 51.54 +28 34 35.4                      349
    CK02T070  C2002 11 27.58098 05 37 05.38 +28 35 03.8          16.9 T      355
    CK02T070  C2002 11 27.58688 05 37 05.08 +28 35 04.2                      355
    CK02T070  C2002 11 27.58916 05 37 04.92 +28 35 04.6                      355
    CK02T070  C2002 11 27.59249 05 37 04.76 +28 35 04.8                      355
    CK02T070  C2002 11 28.36854 05 36 23.36 +28 35 28.2          17.2 T      H43
    CK02T070  C2002 11 28.42137 05 36 20.51 +28 35 30.5          16.7 T      H43
    CK02T070  C2002 11 28.50235 05 36 16.33 +28 35 32.8                      340
    CK02T070  C2002 11 28.50568 05 36 16.16 +28 35 33.0                      340
    CK02T070  C2002 11 28.50994 05 36 15.95 +28 35 32.6          16.8 T      340
    CK02T070  C2002 11 28.63589 05 36 09.12 +28 35 37.2          16.6 T      360
    CK02T070  C2002 11 28.63959 05 36 08.92 +28 35 37.2                      360
    CK02T070  C2002 11 29.22264 05 35 37.51 +28 35 53.8          16.7 T      785
    CK02T070  C2002 11 29.23926 05 35 36.63 +28 35 54.1          16.8 T      785
    CK02T070  C2002 11 29.25777 05 35 35.67 +28 35 54.8          16.7 T      785
    CK02T070  C2002 11 29.27108 05 35 34.89 +28 35 55.4          16.7 T      785
    CK02T070  C2002 11 29.28784 05 35 33.96 +28 35 55.5          16.8 T      785
    CK02T070  C2002 11 29.32816 05 35 31.87 +28 35 58.1          16.8 T      H43
    CK02T070  C2002 11 29.36933 05 35 29.61 +28 35 58.9          16.6 T      H43
    CK02T070  C2002 11 29.86280 05 35 02.99 +28 36 11.5          16.4 N      213
    CK02T070  C2002 11 29.86424 05 35 02.88 +28 36 11.0          16.3 N      213
    CK02T070  C2002 11 29.86829 05 35 02.65 +28 36 11.1          16.4 N      213
    CK02T070  C2002 11 30.12814 05 34 48.52 +28 36 17.6          16.6 T      785
    CK02T070  C2002 11 30.14191 05 34 47.78 +28 36 18.5          16.6 T      785
    CK02T070  C2002 11 30.15769 05 34 46.74 +28 36 20.3          16.2 T      232
    CK02T070  C2002 11 30.16284 05 34 46.47 +28 36 19.5          16.2 T      232
    CK02T070  C2002 11 30.16538 05 34 46.34 +28 36 19.3          16.2 T      232
    CK02T070  C2002 12 01.37338 05 33 40.34 +28 36 49.6          16.3 T      H43
    CK02T070  C2002 12 01.39549 05 33 39.11 +28 36 49.2          16.0 T      H43
    CK02T070  C2002 12 01.80328 05 33 16.74 +28 36 59.1          16.5 N      235
    CK02T070  C2002 12 01.82564 05 33 15.40 +28 36 58.4                      A46
    CK02T070  C2002 12 01.82678 05 33 15.36 +28 36 58.6                      A46
    CK02T070  C2002 12 01.82792 05 33 15.29 +28 36 58.7                      A46
    CK02T070  C2002 12 01.82904 05 33 15.25 +28 36 58.6                      A46
    CK02T070  C2002 12 01.83017 05 33 15.19 +28 36 58.4                      A46
    CK02T070  C2002 12 01.83131 05 33 15.09 +28 36 58.7                      A46
    CK02T070  C2002 12 01.83242 05 33 15.05 +28 36 58.6                      A46
    CK02T070  C2002 12 01.83355 05 33 15.00 +28 36 58.7                      A46
    CK02T070  C2002 12 01.83469 05 33 14.93 +28 36 58.5                      A46
    CK02T070  C2002 12 01.83581 05 33 14.87 +28 36 58.8                      A46
    CK02T070  C2002 12 01.83694 05 33 14.83 +28 36 58.6                      A46
    CK02T070  C2002 12 01.83807 05 33 14.72 +28 36 58.9                      A46
    CK02T070  C2002 12 01.83918 05 33 14.67 +28 36 59.0                      A46
    CK02T070  C2002 12 01.84030 05 33 14.62 +28 36 58.7                      A46
    CK02T070  C2002 12 01.84144 05 33 14.57 +28 36 58.7                      A46
    CK02T070  C2002 12 01.84484 05 33 14.39 +28 36 59.0          16.6 N      235
    CK02T070  C2002 12 02.30249 05 32 48.87 +28 37 08.1          16.8 N      H43
    CK02T070  C2002 12 02.34330 05 32 47.15 +28 37 15.5          16.2 N      H43
    CK02T070  C2002 12 02.71992 05 32 25.70 +28 37 17.9                      349
    CK02T070  C2002 12 02.72274 05 32 25.54 +28 37 17.8                      349
    CK02T070  C2002 12 02.72565 05 32 25.37 +28 37 17.9                      349
    CK02T070  C2002 12 02.76628 05 32 23.09 +28 37 18.8                      349
    CK02T070  C2002 12 02.76899 05 32 22.95 +28 37 18.7          16.6 T      349
    CK02T070  C2002 12 03.31076 05 31 52.79 +28 37 28.9          16.3 T      H43

Observer details:
048 Hradec Kralove.  Observer M. Lehky.  0.40-m f/5 reflector + CCD.
213 Observatorio Montcabre.  Observer R. Naves.  Measurer M. Campas.  0.30-m
    f/6.5 Schmidt-Cassegrain + CCD.
232 Masquefa Observatory.  Observer E. Reina.  0.25-m f/3.3 Schmidt-Cassegrain
    + CCD.
235 CAST Observatory, Talmassons.  Observer R. Ligustri.  0.35-m F/5 reflector
    + CCD.
340 Toyonaka.  Observer Y. Ezaki.  0.3-m f/6.0 reflector + CCD.
349 Ageo.  Observer K. Kadota.  0.18-m f/5.5 reflector + CCD, 0.25-m f/5.0
    reflector + CCD.
355 Hadano.  Observer A. Asami.  0.28-m f/5.0 reflector + CCD.
360 Kuma Kogen.  Observer A. Nakamura.  0.60-m f/6.0 Ritchey-Chretien + CCD.
785 Fitz-Randolph Observatory, Princeton.  Observer H. Ashley.  0.91-m
    Cassegrain + CCD Princeton University.
A46 Lelekovice.  Observer K. Hornoch.  0.35-m f/4.7 reflector + CCD.
H43 Conway.  Observers B. M. Sherrod, P. C. Sherrod.  0.31-m f/3.75
    Schmidt-Cassegrain + CCD.

Orbital elements:
    C/2002 T7 (LINEAR)
T 2004 Apr. 23.4394 TT                                  MPC
q   0.614265             (2000.0)            P               Q
                   Peri.  157.7790      +0.4335706      -0.8379396
                   Node    94.8460      -0.8687069      -0.2909000
e   1.0            Incl.  160.5696      -0.2395096      -0.4617731
From 270 observations 2002 Oct. 12-Dec. 3.

Brian G. Marsden             (C) Copyright 2002 MPC           M.P.E.C. 2002-X18

Read MPEC 2002-X17 Read MPEC 2002-X19


Our Web policy. Index to the CBAT/MPC/ICQ pages.


Valid HTML 4.01!